Location: Newark
(49.8969°N, 3.3422°E)
Time: 20:11:04
(UTC+00:00)

A-11 Canister half - Pass Details

Date: 25 January 2020
Orbit: 1517 x 1683 km, 47.2° (Epoch: 19 February)

Event Time Altitude Azimuth Distance (km) Brightness Sun altitude
Exits shadow 03:04:35 50° 116° (ESE) 1,867 9.4 -42.0°
Drops below altitude 10° 03:11:02 10° 104° (ESE) 3,695 11.5 -41.1°
Sets 03:14:06 0° 103° (ESE) 4,689 12.2 -40.6°
